Showing default

TBA - TO BE ASSIGNED, 64489

Orbit data source: Space-Track

TBA - TO BE ASSIGNED named objects are likely recently launched satellites that are being tracked but not necessarily identified.

Not visible in the next 10 days
Identifier
64489, 2025-133T
Orbit
LEO
Last TLE update
6 hours ago
Origin
Manufacturer
SpaceX/Seattle
Mission
Operational spacecraft
Bus & Motor
STARLINK V2MO, Unknown motor
Mass
575 kg wet, ~530 kg dry
Launch date (UTC)
2025-06-23 (1 week ago)
Launch vehicle
FALCON 9
Launch site
Air Force Eastern Test Range (AFETR)
Object type
Payload
Rocket body
Debris
Shape & HBR
Unknown
Radar Cross Section
RCS unknown

Expand to show TLE details & history

TLE from 6 hours ago
0 STARLINK-34307
1 64489U 25133T   25182.16668981 -.01202110  00000-0 -49003-2 0  9995
2 64489  53.1557 217.9241 0001005  89.0129 113.5240 15.87804406  2472
Epoch: 2025-07-01T04:00Z
TLE epoch observation values (Epoch: 2025-07-01T04:00:01.999Z)
Latitude
-18.04901°
Longitude
72.50118°
Altitude
313.66 km
Speed
7.72 km/s
True Right ascension
03h 27m 54s
True Declination
-17° 56' 28"
Sunlit
Object was in daylight at epoch
Visualization orbit readout
Latitude
35.62373°
Longitude
24.96765°
Altitude
312.488 km
Speed
7.726 km/s
Apparent Right ascension
04h 20m 34s
Apparent Declination
-2° 52' 39"
Sunlit
Object is in daylight
Visualization observer readout
Local Sidereal Time
21:23:36
Azimuth
82.981° E
Elevation
-12.75°
Doppler factor
1
Orbital elements
Apogee altitude
309.375 km
Perigee altitude
308.031 km
Semi-major axis
6,686.84 km
Eccentricity
0.0001
Inclination
53.1557°
RAAN
217.9241°
Arg. of periapsis
89.0129°
True anomaly
Unknown
Mean anomaly
113.524°
Eccentric anomaly
Unknown
Mean motion
3.96928 °/min
Orbital period
90.7 mins
BSTAR
-0.0049003
Loading maneuver chart data...
Loading SW <> Apogee altitude chart data...

TBA - TO BE ASSIGNED Visibility

Observer location: undefined°, undefined°

TBA - TO BE ASSIGNED is likely not visible in the next few days
Span
Click to sort rows by Start time (UTC) header in descending order
Start Az.
Max El. time (UTC)
Max El. Az.
Max El.
End time (UTC)
End Az.
|